• MPC Preparation (Info)

  • MPEC 2017-F190: 2017 FK102

    The following Minor Planet Electronic Circular may be linked-to from your own Web pages, but must not otherwise be redistributed electronically.

    A form allowing access to any MPEC is at the bottom of this page.


    Read MPEC 2017-F189 Read MPEC 2017-F191


    M.P.E.C. 2017-F190                               Issued 2017 Mar. 29, 15:36 UT
    
         The Minor Planet Electronic Circulars contain information on unusual
             minor planets and routine data on comets.  They are published
        on behalf of Division F of the International Astronomical Union by the
              Minor Planet Center, Smithsonian Astrophysical Observatory,
                              Cambridge, MA 02138, U.S.A.
    
                 Prepared using the Tamkin Foundation Computer Network
    
                                  MPC@CFA.HARVARD.EDU
                URL https://www.minorplanetcenter.net/    ISSN 1523-6714
    
                                      2017 FK102
    
    Observations:
         K17FA2K* C2017 03 18.24641 07 12 54.396+42 52 53.41         21.4 wLEF190F51
         K17FA2K  C2017 03 18.25841 07 12 55.261+42 53 12.41         21.7 wLEF190F51
         K17FA2K  C2017 03 18.27041 07 12 56.122+42 53 31.72         21.8 wLEF190F51
         K17FA2K  C2017 03 18.28244 07 12 57.002+42 53 50.71         21.9 wLEF190F51
         K17FA2K  C2017 03 19.17872007 14 09.85 +43 17 08.2          21.4 GtEF190H01
         K17FA2K  C2017 03 19.18280507 14 10.17 +43 17 14.3          21.5 GtEF190H01
         K17FA2K  C2017 03 19.19678207 14 11.24 +43 17 35.4          21.3 GtEF190H01
         K17FA2K  C2017 03 19.20705707 14 12.04 +43 17 50.8          21.5 GtEF190H01
         K17FA2K  C2017 03 19.24918 07 14 16.111+43 18 59.93         22.0 wLEF190F51
         K17FA2K  C2017 03 19.26343 07 14 17.188+43 19 21.66         22.1 wLEF190F51
         K17FA2K  C2017 03 19.29204 07 14 19.364+43 20 04.91         21.8 wLEF190F51
         K17FA2K  C2017 03 22.11160307 18 26.16 +44 27 23.5          21.7 GUEF190H01
         K17FA2K  C2017 03 22.11499407 18 26.44 +44 27 27.8          21.5 GUEF190H01
         K17FA2K  C2017 03 22.12897207 18 27.63 +44 27 46.6          21.4 GUEF190H01
         K17FA2K  C2017 03 22.13291907 18 27.96 +44 27 51.8          21.5 GUEF190H01
         K17FA2K KC2017 03 29.26771 07 30 29.96 +46 44 34.8                oEF190291
         K17FA2K KC2017 03 29.28212 07 30 31.48 +46 44 48.2          21.3 RoEF190291
         K17FA2K KC2017 03 29.28788 07 30 32.12 +46 44 53.3          21.6 RoEF190291
    
    Observer details:
    291 LPL/Spacewatch II.  Observer T. H. Bressi.  1.8-m f/2.7 reflector + CCD.
    F51 Pan-STARRS 1, Haleakala.  Observers B. Gibson, T. Goggia, S. Kahale,
        T. Lowe, A. Schultz, M. Willman.  Measurers K. Chambers, S. Chastel,
        L. Denneau, H. Flewelling, M. Huber, E. Lilly, E. Magnier, R. Wainscoat,
        C. Waters, R. Weryk.  1.8-m Ritchey-Chretien + CCD.
    H01 Magdalena Ridge Observatory, Socorro.  Observers W. H. Ryan, E. V. Ryan.
        Measurer W. H. Ryan.  2.4-m f/8.9 reflector + CCD.
    
    Orbital elements:
    2017 FK102                                               Earth MOID = 0.0581 AU
    Epoch 2017 Feb. 16.0 TT = JDT 2457800.5                 MPC
    M 125.10256              (2000.0)            P               Q
    n   0.82963667     Peri.  216.87266     +0.91718722     -0.05348492
    a   1.1217018      Node   139.97966     +0.00734150     +0.99305032
    e   0.1751307      Incl.   37.88065     -0.39838888     -0.10483527
    P   1.19           H   20.4           G   0.15           U   7
    Residuals in seconds of arc
    170318 F51  0.1+  0.0     170319 H01  0.0   0.0     170322 H01  0.1+  0.1-
    170318 F51  0.1+  0.2-    170319 H01  0.1+  0.0     170322 H01  0.1+  0.1-
    170318 F51  0.0   0.1+    170319 F51  0.1-  0.0     170322 H01  0.1+  0.1-
    170318 F51  0.1+  0.0     170319 F51  0.1-  0.1+    170329 291  0.1+  0.1+
    170319 H01  0.0   0.0     170319 F51  0.0   0.0     170329 291  0.2-  0.1+
    170319 H01  0.1+  0.0     170322 H01  0.2+  0.1+    170329 291  0.0   0.2-
    
    Ephemeris:
    2017 FK102               a,e,i = 1.12, 0.18, 38                  q = 0.9253
    Date    TT    R. A. (2000) Decl.     Delta      r     Elong.  Phase     V
    2017 02 27    06 58 30.2 +29 17 34   0.4184  1.2735   124.2    40.0    20.6
    ...
    2017 03 14    07 07 43.6 +40 48 23   0.5659  1.2943   109.0    46.6    21.5
    ...
    2017 03 22    07 18 15.9 +44 24 49   0.6494  1.3028   102.6    48.3    21.8
    ...
    2017 03 28    07 28 12.6 +46 23 23   0.7118  1.3080    98.4    49.0    22.1
    2017 03 29    07 30 01.2 +46 40 12   0.7221  1.3087    97.8    49.1    22.1
    2017 03 30    07 31 52.3 +46 56 16   0.7324  1.3095    97.1    49.2    22.1
    ...
    2017 04 05    07 43 46.2 +48 18 10   0.7932  1.3132    93.4    49.5    22.3
    ...
    2017 04 13    08 01 27.6 +49 34 32   0.8710  1.3166    89.0    49.6    22.5
    ...
    2017 04 28    08 38 51.5 +50 38 10   1.0036  1.3178    81.9    49.1    22.8
    
    A. U. Tomatic                (C) Copyright 2017 MPC           M.P.E.C. 2017-F190
    

    Read MPEC 2017-F189 Read MPEC 2017-F191


    MPEC number:

    Enter an MPEC number in one of the following forms:

    • 1997-B01 (the full form)
    • J97B01 (the packed version of the full form)
    • B01 (the abbreviated form)